Погода в Караваеве

Россия / Владимирская область     56˚07′55″N   39˚31′10″E
темп.,
°C
ветер,
м/с
пор.,
м/с
влажн.,
%
обл.,
%
осадки,
мм/ч
давл.,
гПа
погр.,
м
17 января, вс
вс1700:00−19˚ссз4894100 0.3 1006451
03:00−21˚ссз4895100 0.3 1009387
06:00−22˚ссз4896100 0.1 1010314
09:00−24˚ссз389799 0.1 1013224
12:00−22˚с369585 0.0 1015243
15:00−21˚ссз249668 0.0 1016166
18:00−24˚с22970 0.0 101721
21:00−24˚ссз12980 0.0 101920
18 января, пн
пн1800:00−24˚ссз119824 0.0 101920
03:00−24˚сз129724 0.0 102020
06:00−24˚зюз119845 0.0 101920
09:00−24˚зюз239845 0.0 102028
12:00−18˚юз129348 0.0 1019114
15:00−17˚ююз129451 0.0 101933
18:00−21˚юз229869 0.0 101920
21:00−21˚з129974 0.0 101920
19 января, вт
вт1900:00−21˚сз119981 0.0 101820
03:00−20˚зсз119990 0.0 101820
06:00−19˚ююз0098100 0.1 101720
09:00−18˚ссз1198100 0.2 101720
12:00−15˚с119398 0.1 1017194
15:00−15˚вюв119599 0.2 1016163
18:00−18˚с119792 0.1 101720
21:00−19˚ссв119985 0.1 101720
20 января, ср
ср2000:00−17˚сз119792 0.1 101824
03:00−18˚сз119888 0.1 101920
06:00−18˚сз129884 0.1 101920
09:00−17˚зсз129785 0.1 102020
12:00−14˚зсз239585 0.0 1021167
15:00−13˚з249684 0.1 1021149
18:00−16˚з229864 0.0 102220
21:00−17˚зюз239735 0.0 102227
21 января, чт
чт2100:00−17˚зюз23980 0.0 102257
03:00−18˚юз369817 0.0 1023101
06:00−18˚юз379885 0.0 1022138
09:00−16˚юз499593 0.0 1021220
12:00−14˚ююз4893100 0.0 1019259
15:00−11˚ююз51093100 0.0 1016348
18:00−9˚ююз51194100 0.8 1014598
21:00−8˚юз41194100 1.6 1013553